User: anonymous   Login
Location: Ostrava
(49.8330°N, 18.2830°E)
Time: 17:29:56
(UTC+01:00)
Language:

Cosmos 2221 - Orbit

View from above orbital plane
View from above orbital plane
View from above satellite
View from above satellite

Ground track
Ground track

The orbit data is extracted from the following two-line orbital elements,

1 22236U 92080A   15060.25333443  .00001438  00000-0  15910-3 0  9998
2 22236 082.5098 131.0817 0015577 260.0590 099.8869 14.86643567202628
Epoch (UTC): 01 March 2015 06:04:48
Eccentricity: 0.0015577
inclination: 82.5098°
perigee height: 597 km
apogee height: 619 km
right ascension of ascending node: 131.0817°
argument of perigee: 260.0590°
revolutions per day: 14.86643567
mean anomaly at epoch: 99.8869°
orbit number at epoch: 20262

The dashed part of the orbit path shows where the satellite is in the earth's shadow,  

DLR